Brno, Czech Republic

1:35 PM CEST on June 27, 2017 (GMT +0200)
Turany

Weather History for LKTB - April, 2014

Change the Weather History Date:

Monday, April 28, 2014

  Actual Average Record
Temperature  
Mean Temperature 58 °F -  
Max Temperature 70 °F 66 °F - ()
Min Temperature 47 °F 46 °F - ()
Degree Days  
Heating Degree Days 6    
Growing Degree Days 8 (Base 50)    
Moisture  
Dew Point 49 °F    
Average Humidity 73    
Maximum Humidity 97    
Minimum Humidity 38    
Precipitation  
Precipitation 0.00 in 0.08 in - ()
Sea Level Pressure  
Sea Level Pressure 29.75 in    
Wind  
Wind Speed 4 mph ()    
Max Wind Speed 20 mph    
Max Gust Speed -    
Visibility 7.0 miles    
Events Fog , Rain , Thunderstorm    
T = Trace of Precipitation, MM = Missing Value Source: Averaged Metar Reports

Daily Weather History Graph

Daily Weather History Graph

Search for Another Location

Airport or City:

Trip Planner

Search our weather history database for the weather conditions in past years. The results will help you decide how hot, cold, wet, or windy it might be!

Date:

Astronomy

Apr. 28, 2014 Rise Set
Actual Time 5:37 AM CEST 8:04 PM CEST
Civil Twilight 5:02 AM CEST 8:40 PM CEST
Nautical Twilight 4:18 AM CEST 9:24 PM CEST
Astronomical Twilight 3:26 AM CEST 10:16 PM CEST
Moon 5:11 AM CEST (4/28) 7:19 PM CEST (4/28)
Length of Visible Light 15h 37m
Length of Day
14h 27m
Waning Crescent, 1% of the Moon is Illuminated
Apr 28
Waning Crescent
Apr 29
New
May 7
First Quarter
May 14
Full
May 21
Last Quarter

Hourly Weather History & Observations

Time (CEST) Temp. Dew Point Humidity Pressure Visibility Wind Dir Wind Speed Gust Speed Precip Events Conditions
12:00 AM 57 °F 48 °F 65% 29.75 in 12 mi SE 2.2 mph - -   Scattered Clouds
12:00 AM 57.2 °F 48.2 °F 72% 29.74 in - Variable 2.3 mph - N/A   Clear
12:30 AM 57.2 °F 48.2 °F 72% 29.74 in - Variable 2.3 mph - N/A   Clear
1:00 AM 57 °F 47 °F 61% 29.76 in 12 mi SSE 2.2 mph - -   Scattered Clouds
1:00 AM 57.2 °F 48.2 °F 72% 29.74 in - Calm Calm - N/A   Clear
1:30 AM 55.4 °F 48.2 °F 77% 29.74 in - SSW 2.3 mph - N/A   Clear
2:00 AM 53 °F 49 °F 84% 29.77 in 11 mi South 4.5 mph - -   Scattered Clouds
2:00 AM 53.6 °F 50.0 °F 88% 29.74 in - SSW 4.6 mph - N/A   Clear
2:30 AM 51.8 °F 48.2 °F 88% 29.74 in - SSW 5.8 mph - N/A   Clear
3:00 AM 50 °F 48 °F 90% 29.76 in 7 mi SSW 4.5 mph - -   Scattered Clouds
3:00 AM 50.0 °F 48.2 °F 94% 29.74 in - SSW 4.6 mph - N/A   Clear
3:30 AM 50.0 °F 48.2 °F 94% 29.74 in - South 2.3 mph - N/A   Clear
4:00 AM 50 °F 48 °F 89% 29.76 in 6 mi West 2.2 mph - -   Scattered Clouds
4:00 AM 50.0 °F 48.2 °F 94% 29.74 in - Calm Calm - N/A   Clear
4:30 AM 50.0 °F 48.2 °F 94% 29.74 in - Variable 1.2 mph - N/A   Clear
5:00 AM 48 °F 47 °F 94% 29.76 in 5 mi West 2.2 mph - -   Mist
5:00 AM 48.2 °F 46.4 °F 93% 29.74 in 5.0 mi Variable 2.3 mph - N/A   Unknown
5:30 AM 48.2 °F 46.4 °F 93% 29.74 in 3.1 mi Variable 1.2 mph - N/A Fog Mist
6:00 AM 48 °F 47 °F 95% 29.77 in 1 mi ENE 2.2 mph - - Fog Shallow Fog
6:00 AM 48.2 °F 46.4 °F 93% 29.74 in 0.6 mi ENE 1.2 mph - N/A Fog Mist
6:30 AM 48.2 °F 46.4 °F 93% 29.74 in 2.5 mi East 2.3 mph - N/A Fog Mist
7:00 AM 49 °F 48 °F 97% 29.78 in 3 mi East 2.2 mph - -   Mist
7:00 AM 50.0 °F 48.2 °F 94% 29.77 in 2.8 mi Calm Calm - N/A   Mist
7:30 AM 50.0 °F 48.2 °F 94% 29.77 in 2.8 mi Calm Calm - N/A   Mist
7:42 AM 50.0 °F 48.2 °F 94% 29.77 in 3.1 mi Variable 2.3 mph - N/A   Partly Cloudy
8:00 AM 52 °F 50 °F 89% 29.78 in 3 mi West 2.2 mph - -   Mist
8:00 AM 51.8 °F 50.0 °F 94% 29.77 in 3.1 mi Variable 1.2 mph - N/A   Scattered Clouds
8:30 AM 55.4 °F 50.0 °F 82% 29.77 in 4.3 mi Variable 1.2 mph - N/A   Partly Cloudy
9:00 AM 57 °F 51 °F 74% 29.78 in 5 mi ESE 2.2 mph - -   Mist
9:00 AM 57.2 °F 50.0 °F 77% 29.77 in 5.0 mi Calm Calm - N/A   Partly Cloudy
9:30 AM 57.2 °F 51.8 °F 82% 29.77 in 5.6 mi Variable 2.3 mph - N/A   Partly Cloudy
10:00 AM 58 °F 52 °F 74% 29.78 in 6 mi SSW 4.5 mph - -   Scattered Clouds
10:00 AM 57.2 °F 51.8 °F 82% 29.77 in 6.2 mi South 3.5 mph - N/A   Partly Cloudy
10:30 AM 59.0 °F 51.8 °F 77% 29.77 in 6.2 mi Variable 2.3 mph - N/A   Partly Cloudy
11:00 AM 61 °F 52 °F 65% 29.77 in 9 mi SSW 4.5 mph - -   Scattered Clouds
11:00 AM 60.8 °F 53.6 °F 77% 29.77 in 6.2 mi SW 4.6 mph - N/A   Partly Cloudy
11:30 AM 62.6 °F 53.6 °F 72% 29.77 in 6.2 mi SW 4.6 mph - N/A   Partly Cloudy
12:00 PM 65 °F 51 °F 51% 29.75 in 10 mi SE 6.7 mph - -   Scattered Clouds
12:00 PM 64.4 °F 51.8 °F 64% 29.74 in 6.2 mi SSW 3.5 mph - N/A   Partly Cloudy
12:30 PM 66.2 °F 51.8 °F 60% 29.74 in 6.2 mi Variable 2.3 mph - N/A Thunderstorm Partly Cloudy
1:00 PM 68 °F 53 °F 49% 29.74 in 12 mi South 4.5 mph - - Thunderstorm Thunderstorm
1:00 PM 68.0 °F 53.6 °F 60% 29.74 in 6.2 mi South 4.6 mph - N/A Thunderstorm Scattered Clouds
1:30 PM 69.8 °F 51.8 °F 53% 29.74 in 6.2 mi Variable 3.5 mph - N/A   Scattered Clouds
2:00 PM 65 °F 45 °F 38% 29.73 in 16 mi North 13.4 mph - - Thunderstorm Light Thunderstorm
2:00 PM 64.4 °F 46.4 °F 52% 29.74 in 6.2 mi North 15.0 mph - N/A   Partly Cloudy
2:12 PM 66.2 °F 48.2 °F 52% 29.74 in 6.2 mi North 10.4 mph - N/A Thunderstorm Partly Cloudy
2:30 PM 64.4 °F 50.0 °F 59% 29.74 in 6.2 mi NE 8.1 mph - N/A Thunderstorm Partly Cloudy
3:00 PM 64 °F 49 °F 47% 29.75 in 22 mi NE 20.1 mph - - Thunderstorm Light Thunderstorm
3:00 PM 64.4 °F 48.2 °F 56% 29.74 in 6.2 mi NE 18.4 mph - N/A   Partly Cloudy
3:30 PM 64.4 °F 50.0 °F 59% 29.74 in 6.2 mi NE 18.4 mph - N/A Rain Light Rain Showers
4:00 PM 65 °F 49 °F 45% 29.73 in 22 mi North 13.4 mph - - Rain Light Rain Showers
4:00 PM 64.4 °F 51.8 °F 64% 29.74 in 6.2 mi North 15.0 mph - N/A Rain Light Rain Showers
4:30 PM 64.4 °F 48.2 °F 56% 29.74 in 6.2 mi NNW 9.2 mph - N/A Rain Light Rain Showers
5:00 PM 65 °F 47 °F 41% 29.73 in 25 mi North 11.2 mph - - Rain Light Rain Showers
5:00 PM 64.4 °F 46.4 °F 52% 29.74 in - North 10.4 mph - N/A   Clear
5:30 PM 64.4 °F 50.0 °F 59% 29.74 in - NNW 11.5 mph - N/A   Clear
6:00 PM 64 °F 49 °F 47% 29.74 in 22 mi North 11.2 mph - -   Scattered Clouds
6:00 PM 64.4 °F 48.2 °F 56% 29.74 in - North 11.5 mph - N/A   Clear
6:30 PM 62.6 °F 50.0 °F 63% 29.74 in - NNW 9.2 mph - N/A   Clear
7:00 PM 62 °F 49 °F 53% 29.75 in 25 mi North 6.7 mph - -   Mostly Cloudy
7:00 PM 60.8 °F 50.0 °F 68% 29.74 in - NNW 8.1 mph - N/A   Clear
7:30 PM 60.8 °F 51.8 °F 72% 29.77 in - North 4.6 mph - N/A   Clear
8:00 PM 60 °F 51 °F 65% 29.76 in 22 mi North 6.7 mph - -   Partly Cloudy
8:30 PM 59.0 °F 51.8 °F 77% 29.74 in - North 6.9 mph - N/A   Clear
9:00 PM 58 °F 51 °F 70% 29.77 in 19 mi North 6.7 mph - -   Scattered Clouds
9:00 PM 57.2 °F 51.8 °F 82% 29.77 in - North 5.8 mph - N/A   Clear
9:30 PM 57.2 °F 50.0 °F 77% 29.77 in - Variable 2.3 mph - N/A   Clear
10:00 PM 56 °F 49 °F 71% 29.78 in 19 mi NW 2.2 mph - -   Clear
10:00 PM 57.2 °F 50.0 °F 77% 29.77 in - Variable 1.2 mph - N/A   Clear
10:30 PM 55.4 °F 50.0 °F 82% 29.77 in - NNW 4.6 mph - N/A   Clear
11:00 PM 55 °F 48 °F 71% 29.79 in 19 mi NW 6.7 mph - -   Scattered Clouds
11:00 PM 55.4 °F 48.2 °F 77% 29.77 in - NW 6.9 mph - N/A   Clear
11:30 PM 55.4 °F 50.0 °F 82% 29.80 in - NW 5.8 mph - N/A   Clear